When you browse on this site, cookies collect data to enhance your experience and personalize the content and advertising you see.
Visit our Privacy Policy to learn more. By continuing to use the site, you agree to this use of cookies and data.
  • In Germany
  • List of Countries
  • For 7 days
  • Water Temperature
  • Weather Map
  • Weather Widgets
  • user-avatar
    Login

    Hourly Weather Gold Coast

    Today, 27 May, Wednesday

    Time Temperature Precipitation Wind Pressure Humidity
    00:00 +18°C° 0 mm 1 mps 760 mmHg 65%
    01:00 +18°C° 0 mm 1 mps 760 mmHg 66%
    02:00 +18°C° 0 mm 1 mps 759 mmHg 70%
    03:00 +16°C° 0 mm 1 mps 759 mmHg 75%
    04:00 +15°C° 0 mm 1 mps 759 mmHg 80%
    05:00 +16°C° 0 mm 1 mps 760 mmHg 81%
    06:00 +16°C° 0 mm 1 mps 760 mmHg 82%
    07:00 +16°C° 0 mm 2 mps 761 mmHg 83%
    08:00 +19°C° 0 mm 1 mps 761 mmHg 75%
    09:00 +21°C° 0 mm 1 mps 761 mmHg 66%
    10:00 +23°C° 0 mm 1 mps 761 mmHg 58%
    11:00 +23°C° 0 mm 1 mps 760 mmHg 59%
    12:00 +24°C° 0 mm 1 mps 760 mmHg 60%
    13:00 +24°C° 0 mm 1 mps 759 mmHg 61%
    14:00 +23°C° 0 mm 1 mps 759 mmHg 65%
    15:00 +22°C° 0 mm 1 mps 759 mmHg 69%
    16:00 +22°C° 0 mm 1 mps 759 mmHg 73%
    17:00 +20°C° 0 mm 1 mps 759 mmHg 78%
    18:00 +19°C° 0 mm 1 mps 759 mmHg 82%
    19:00 +18°C° 0 mm 1 mps 760 mmHg 86%
    20:00 +18°C° 0 mm 1 mps 760 mmHg 88%
    21:00 +16°C° 0 mm 1 mps 760 mmHg 90%
    22:00 +16°C° 0 mm 1 mps 760 mmHg 93%
    23:00 +15°C° 0 mm 1 mps 760 mmHg 93%

    Tomorrow, 28 May, Thursday

    Time Temperature Precipitation Wind Pressure Humidity
    00:00 +15°C° 0 mm 1 mps 760 mmHg 93%
    01:00 +15°C° 0 mm 1 mps 760 mmHg 93%
    02:00 +15°C° 0 mm 1 mps 760 mmHg 93%
    03:00 +15°C° 0 mm 1 mps 760 mmHg 93%
    04:00 +15°C° 0 mm 1 mps 760 mmHg 94%
    05:00 +15°C° 0 mm 1 mps 760 mmHg 93%
    06:00 +15°C° 0 mm 1 mps 760 mmHg 92%
    07:00 +15°C° 0 mm 1 mps 761 mmHg 92%
    08:00 +19°C° 0 mm 1 mps 761 mmHg 81%
    09:00 +22°C° 0 mm 1 mps 761 mmHg 70%
    10:00 +24°C° 0 mm 1 mps 761 mmHg 59%
    11:00 +25°C° 0 mm 1 mps 760 mmHg 59%
    12:00 +25°C° 0 mm 1 mps 760 mmHg 60%
    13:00 +25°C° 0 mm 2 mps 759 mmHg 60%
    14:00 +24°C° 0.3 mm 2 mps 759 mmHg 68%
    15:00 +23°C° 0.3 mm 2 mps 759 mmHg 75%
    16:00 +21°C° 0.3 mm 2 mps 760 mmHg 83%
    17:00 +20°C° 0.6 mm 1 mps 760 mmHg 87%
    18:00 +19°C° 0.6 mm 1 mps 760 mmHg 90%
    19:00 +18°C° 0.6 mm 1 mps 761 mmHg 94%
    20:00 +18°C° 0.3 mm 1 mps 761 mmHg 94%
    21:00 +16°C° 0.3 mm 1 mps 761 mmHg 94%
    22:00 +16°C° 0.3 mm 1 mps 762 mmHg 94%
    23:00 +16°C° 0.2 mm 2 mps 761 mmHg 95%

    Day after tomorrow, 29 May, Friday

    Time Temperature Precipitation Wind Pressure Humidity
    00:00 +16°C° 0.2 mm 2 mps 761 mmHg 95%
    01:00 +15°C° 0.2 mm 2 mps 761 mmHg 96%
    02:00 +14°C° 0 mm 3 mps 761 mmHg 96%
    03:00 +14°C° 0 mm 3 mps 761 mmHg 97%
    04:00 +14°C° 0 mm 4 mps 761 mmHg 97%
    05:00 +14°C° 0 mm 4 mps 762 mmHg 97%
    06:00 +13°C° 0 mm 4 mps 762 mmHg 97%
    07:00 +13°C° 0 mm 4 mps 763 mmHg 97%
    08:00 +15°C° 0 mm 4 mps 763 mmHg 88%
    09:00 +17°C° 0 mm 5 mps 763 mmHg 80%
    10:00 +20°C° 0 mm 5 mps 764 mmHg 71%
    11:00 +21°C° 0 mm 5 mps 763 mmHg 66%
    12:00 +22°C° 0 mm 6 mps 763 mmHg 61%
    13:00 +23°C° 0 mm 6 mps 762 mmHg 56%
    14:00 +22°C° 0 mm 6 mps 762 mmHg 59%
    15:00 +21°C° 0 mm 5 mps 763 mmHg 62%
    16:00 +20°C° 0 mm 5 mps 763 mmHg 65%
    17:00 +19°C° 0 mm 5 mps 763 mmHg 73%
    18:00 +16°C° 0 mm 5 mps 764 mmHg 81%
    19:00 +14°C° 0 mm 4 mps 764 mmHg 89%
    20:00 +14°C° 0.1 mm 4 mps 764 mmHg 91%
    21:00 +14°C° 0.1 mm 4 mps 765 mmHg 93%
    22:00 +13°C° 0.1 mm 4 mps 765 mmHg 94%
    23:00 +13°C° 0.1 mm 4 mps 765 mmHg 94%

    30 May, Saturday

    Time Temperature Precipitation Wind Pressure Humidity
    00:00 +13°C° 0.1 mm 4 mps 765 mmHg 94%
    01:00 +13°C° 0.1 mm 4 mps 764 mmHg 94%
    02:00 +13°C° 0 mm 4 mps 764 mmHg 94%
    03:00 +13°C° 0 mm 4 mps 764 mmHg 95%
    04:00 +13°C° 0 mm 4 mps 764 mmHg 95%
    05:00 +13°C° 0 mm 4 mps 765 mmHg 94%
    06:00 +13°C° 0 mm 4 mps 765 mmHg 94%
    07:00 +13°C° 0 mm 4 mps 765 mmHg 93%
    08:00 +15°C° 0 mm 4 mps 765 mmHg 82%
    09:00 +18°C° 0 mm 4 mps 765 mmHg 72%
    10:00 +21°C° 0 mm 5 mps 765 mmHg 61%
    11:00 +21°C° 0 mm 5 mps 765 mmHg 59%
    12:00 +22°C° 0 mm 5 mps 764 mmHg 57%
    13:00 +22°C° 0 mm 5 mps 764 mmHg 55%
    14:00 +22°C° 0.1 mm 4 mps 763 mmHg 60%
    15:00 +21°C° 0.1 mm 4 mps 763 mmHg 64%
    16:00 +20°C° 0.1 mm 4 mps 763 mmHg 68%
    17:00 +19°C° 0 mm 3 mps 764 mmHg 74%
    18:00 +17°C° 0 mm 3 mps 764 mmHg 81%
    19:00 +16°C° 0 mm 3 mps 764 mmHg 88%
    20:00 +16°C° 0 mm 2 mps 764 mmHg 88%
    21:00 +15°C° 0 mm 2 mps 764 mmHg 89%
    22:00 +15°C° 0 mm 2 mps 764 mmHg 90%
    23:00 +15°C° 0 mm 2 mps 764 mmHg 91%

    31 May, Sunday

    Time Temperature Precipitation Wind Pressure Humidity
    00:00 +14°C° 0 mm 2 mps 764 mmHg 92%
    01:00 +14°C° 0 mm 2 mps 763 mmHg 93%
    02:00 +14°C° 0.1 mm 2 mps 763 mmHg 92%
    03:00 +14°C° 0.1 mm 2 mps 763 mmHg 91%
    04:00 +14°C° 0.1 mm 2 mps 763 mmHg 90%
    05:00 +14°C° 0.7 mm 2 mps 763 mmHg 90%
    06:00 +15°C° 0.7 mm 2 mps 764 mmHg 90%
    07:00 +15°C° 0.7 mm 1 mps 764 mmHg 91%
    08:00 +15°C° 0.8 mm 2 mps 764 mmHg 92%
    09:00 +16°C° 0.8 mm 2 mps 764 mmHg 93%
    10:00 +16°C° 0.8 mm 2 mps 764 mmHg 94%
    11:00 +17°C° 0.6 mm 2 mps 763 mmHg 92%
    12:00 +17°C° 0.6 mm 3 mps 763 mmHg 91%
    13:00 +18°C° 0.6 mm 3 mps 762 mmHg 89%
    14:00 +18°C° 0.1 mm 3 mps 762 mmHg 85%
    15:00 +18°C° 0.1 mm 3 mps 762 mmHg 82%
    16:00 +18°C° 0.1 mm 3 mps 761 mmHg 78%
    17:00 +17°C° 0 mm 2 mps 762 mmHg 82%
    18:00 +16°C° 0 mm 2 mps 762 mmHg 86%
    19:00 +14°C° 0 mm 1 mps 762 mmHg 91%
    20:00 +14°C° 0 mm 1 mps 762 mmHg 89%
    21:00 +14°C° 0 mm 1 mps 762 mmHg 88%
    22:00 +14°C° 0 mm 1 mps 762 mmHg 87%
    23:00 +14°C° 0 mm 1 mps 762 mmHg 88%

    1 June, Monday

    Time Temperature Precipitation Wind Pressure Humidity
    00:00 +14°C° 0 mm 2 mps 762 mmHg 89%
    01:00 +14°C° 0 mm 2 mps 761 mmHg 90%
    02:00 +13°C° 0 mm 2 mps 761 mmHg 91%
    03:00 +13°C° 0 mm 2 mps 761 mmHg 92%
    04:00 +13°C° 0 mm 2 mps 761 mmHg 93%
    05:00 +13°C° 0 mm 2 mps 761 mmHg 94%
    06:00 +13°C° 0 mm 2 mps 761 mmHg 94%
    07:00 +13°C° 0 mm 2 mps 762 mmHg 94%
    08:00 +16°C° 0 mm 3 mps 762 mmHg 82%
    09:00 +19°C° 0 mm 3 mps 761 mmHg 70%
    10:00 +22°C° 0 mm 3 mps 761 mmHg 58%
    11:00 +22°C° 0 mm 3 mps 761 mmHg 53%
    12:00 +24°C° 0 mm 3 mps 760 mmHg 48%
    13:00 +25°C° 0 mm 3 mps 759 mmHg 44%
    14:00 +25°C° 0 mm 3 mps 759 mmHg 47%
    15:00 +24°C° 0 mm 2 mps 759 mmHg 51%
    16:00 +24°C° 0 mm 2 mps 759 mmHg 54%
    17:00 +21°C° 0 mm 2 mps 760 mmHg 59%
    18:00 +19°C° 0 mm 3 mps 760 mmHg 63%
    19:00 +17°C° 0 mm 3 mps 760 mmHg 68%
    20:00 +17°C° 0 mm 3 mps 760 mmHg 68%
    21:00 +16°C° 0 mm 3 mps 761 mmHg 69%
    22:00 +16°C° 0 mm 2 mps 761 mmHg 69%
    23:00 +15°C° 0 mm 2 mps 761 mmHg 70%
    Show more